Flag for Canada Weather past 2 weeks in Vaughan, Ontario, Canada

Now
59 °F

Fog.


Feels Like: 59 °F
Forecast: 58 / 70 °F
Wind: 5 mph from East

Location: Toronto Buttonville

Current Time: Oct 1, 2014 at 9:24:41 PM

Latest Report: Oct 1, 2014 at 9:00 PM


Visibility: 5 mi

Pressure: 30.09 "Hg

Humidity: 94%

Dew point: 57 °F

Location of VaughanLocation

Historic Weather in Vaughan — Graph

°F

Vaughan temperature yesterday

Maximum temperature yesterday: 66 °F (at 3:00 PM)
Minimum temperature yesterday: 59 °F (at 12:00 AM)
Average temperature yesterday: 62 °F

Past Weeks' High & Low Weather Summary

 TemperatureHumidityPressure
High79 °F (Sep 27, 4:00 PM)100% (Sep 17, 4:00 AM)30.53 "Hg (Sep 17, 4:00 AM)
Low37 °F (Sep 19, 6:00 AM)42% (Sep 27, 5:00 PM)29.52 "Hg (Sep 21, 11:00 AM)
Average59 °F77%30.12 "Hg
* Reported Sep 16 8:00 PM — Oct 1 8:00 PM, Vaughan, Weather by CustomWeather, © 2014

Note: Actual official high and low records may vary slightly from our data, if they occured in-between our weather recording intervals... More about our weather records

Advertising

Vaughan weather history for previous 24 hours

 ConditionsComfort  
Time TempWeatherWind HumidityBarometerVisibility
8:00 PM
Oct 1
59 °FFog.5 mph94%30.09 "Hg5 mi
7:00 PM59 °FFog.5 mph94%30.09 "Hg5 mi
6:00 PM61 °FFog.3 mph88%30.08 "Hg5 mi
5:00 PM61 °FFog.5 mph88%30.09 "Hg3 mi
4:00 PM59 °FFog.3 mph94%30.09 "Hg5 mi
3:00 PM59 °FFog.3 mph94%30.09 "Hg5 mi
2:00 PM59 °FFog.7 mph94%30.10 "Hg3 mi
1:00 PM59 °FFog.8 mph94%30.10 "Hg6 mi
12:00 PM59 °FFog.5 mph94%30.11 "Hg6 mi
11:00 AM59 °FFog.6 mph94%30.11 "Hg5 mi
10:00 AM59 °FFog.3 mph88%30.10 "Hg5 mi
9:00 AM57 °FFog.5 mph94%30.09 "Hg4 mi
8:00 AM57 °FFog.3 mph94%30.08 "Hg5 mi
7:00 AM57 °FFog.5 mph94%30.06 "Hg6 mi
6:00 AM57 °FOvercast.5 mph94%30.05 "Hg8 mi
5:00 AM59 °FOvercast.5 mph82%30.04 "Hg10 mi
4:00 AM59 °FOvercast.5 mph82%30.04 "Hg10 mi
3:00 AM59 °FOvercast.5 mph82%30.04 "Hg10 mi
2:00 AM59 °FOvercast.6 mph88%30.05 "Hg10 mi
1:00 AM59 °FOvercast.7 mph88%30.03 "Hg10 mi
12:00 AM61 °FMostly cloudy.5 mph83%30.02 "Hg10 mi
11:00 PM
Sep 30
61 °FMostly cloudy.5 mph88%30.01 "Hg7 mi
10:00 PM61 °FOvercast.3 mph94%30.00 "Hg7 mi
9:00 PM61 °FMostly cloudy.3 mph94%29.99 "Hg8 mi
Weather by CustomWeather, © 2014

See weather overviewHow to use our weather pages